Time,TemperatureF,DewpointF,PressureIn,WindDirection,WindDirectionDegrees,WindSpeedMPH,WindSpeedGustMPH,Humidity,HourlyPrecipIn,Conditions,Clouds,dailyrainin,SoftwareType,DateUTC
2013-03-13 00:02:00,68.0,30.0,29.94,North,-999,0.0,0.0,24,0.00,,,-99.99,,2013-03-13 07:02:00,
2013-03-13 01:02:00,68.0,28.0,29.92,North,-999,0.0,0.0,22,0.00,,,-99.99,,2013-03-13 08:02:00,
2013-03-13 01:03:00,68.0,28.0,29.93,North,0,0.0,1.0,22,0.00,,,-99.99,,2013-03-13 08:03:00,
2013-03-13 01:12:00,68.0,28.0,29.93,North,0,0.0,1.0,22,0.00,,,-99.99,,2013-03-13 08:12:00,
2013-03-13 01:22:00,68.0,28.0,29.93,North,0,0.0,1.0,22,0.00,,,-99.99,,2013-03-13 08:22:00,
2013-03-13 01:32:00,68.0,28.0,29.92,North,-999,0.0,0.0,22,0.00,,,-99.99,,2013-03-13 08:32:00,
2013-03-13 02:32:00,68.0,29.0,29.92,North,-999,0.0,0.0,23,0.00,,,-99.99,,2013-03-13 09:32:00,
2013-03-13 03:01:00,68.0,28.0,29.92,North,-999,0.0,0.0,22,0.00,,,-99.99,,2013-03-13 10:01:00,
2013-03-13 03:32:00,69.0,27.0,29.91,North,0,0.0,1.0,21,0.00,,,-99.99,,2013-03-13 10:32:00,
2013-03-13 04:02:00,69.0,27.0,29.91,North,-999,0.0,0.0,21,0.00,,,-99.99,,2013-03-13 11:02:00,
2013-03-13 04:32:00,71.0,24.0,29.90,West,280,2.0,3.0,17,0.00,,,-99.99,,2013-03-13 11:32:00,
2013-03-13 05:02:00,70.0,27.0,29.89,North,-999,0.0,0.0,20,0.00,,,-99.99,,2013-03-13 12:02:00,
2013-03-13 05:32:00,70.0,25.0,29.90,North,0,0.0,1.0,18,0.00,,,-99.99,,2013-03-13 12:32:00,
2013-03-13 06:02:00,70.0,23.0,29.91,North,0,0.0,1.0,17,0.00,,,-99.99,,2013-03-13 13:02:00,
2013-03-13 06:32:00,70.0,22.0,29.91,North,-999,0.0,0.0,16,0.00,,,-99.99,,2013-03-13 13:32:00,
2013-03-13 07:02:00,71.0,24.0,29.90,NNE,20,1.0,2.0,17,0.00,,,-99.99,,2013-03-13 14:02:00,
2013-03-13 07:33:00,70.0,23.0,29.91,North,0,0.0,2.0,17,0.00,,,-99.99,,2013-03-13 14:33:00,
2013-03-13 08:02:00,70.0,22.0,29.91,North,0,0.0,1.0,16,0.00,,,-99.99,,2013-03-13 15:02:00,
2013-03-13 08:32:00,70.0,23.0,29.92,NNE,30,1.0,4.0,17,0.00,,,-99.99,,2013-03-13 15:32:00,
2013-03-13 09:33:00,72.0,27.0,29.93,North,-999,0.0,0.0,19,0.00,,,-99.99,,2013-03-13 16:33:00,
2013-03-13 10:02:00,73.0,24.0,29.93,North,0,0.0,1.0,16,0.00,,,-99.99,,2013-03-13 17:02:00,
2013-03-13 10:32:00,74.0,26.0,29.94,North,-999,0.0,0.0,17,0.00,,,-99.99,,2013-03-13 17:32:00,
2013-03-13 11:02:00,75.0,34.0,29.94,North,-999,0.0,0.0,22,0.00,,,-99.99,,2013-03-13 18:02:00,
2013-03-13 11:12:00,75.0,34.0,29.94,North,-999,0.0,0.0,22,0.00,,,-99.99,,2013-03-13 18:12:00,
2013-03-13 11:22:00,75.0,34.0,29.94,North,-999,0.0,0.0,22,0.00,,,-99.99,,2013-03-13 18:22:00,
2013-03-13 11:42:00,76.0,38.0,29.93,North,0,0.0,1.0,25,0.00,,,-99.99,,2013-03-13 18:42:00,
2013-03-13 11:52:00,76.0,38.0,29.93,North,0,0.0,1.0,25,0.00,,,-99.99,,2013-03-13 18:52:00,
2013-03-13 12:01:00,78.0,35.0,29.92,North,0,0.0,1.0,21,0.00,,,-99.99,,2013-03-13 19:01:00,
2013-03-13 12:02:00,78.0,37.0,29.92,North,0,0.0,1.0,23,0.00,,,-99.99,,2013-03-13 19:02:00,
2013-03-13 12:12:00,78.0,37.0,29.92,North,0,0.0,1.0,23,0.00,,,-99.99,,2013-03-13 19:12:00,
2013-03-13 12:22:00,78.0,37.0,29.92,North,0,0.0,1.0,23,0.00,,,-99.99,,2013-03-13 19:22:00,
2013-03-13 12:32:00,78.0,35.0,29.92,North,0,0.0,1.0,21,0.00,,,-99.99,,2013-03-13 19:32:00,
2013-03-13 12:43:00,78.0,35.0,29.92,North,0,0.0,1.0,21,0.00,,,-99.99,,2013-03-13 19:43:00,
2013-03-13 12:53:00,78.0,35.0,29.92,North,0,0.0,1.0,21,0.00,,,-99.99,,2013-03-13 19:53:00,
2013-03-13 16:02:00,78.0,34.0,29.83,SSW,210,2.0,4.0,20,0.00,,,-99.99,,2013-03-13 23:02:00,
2013-03-13 16:32:00,78.0,34.0,29.83,SSW,210,2.0,4.0,20,0.00,,,-99.99,,2013-03-13 23:32:00,
2013-03-13 16:43:00,78.0,34.0,29.83,SSW,210,2.0,4.0,20,0.00,,,-99.99,,2013-03-13 23:43:00,
2013-03-13 16:52:00,78.0,34.0,29.83,SSW,210,2.0,4.0,20,0.00,,,-99.99,,2013-03-13 23:52:00,
2013-03-13 17:33:00,78.0,31.0,29.82,SSW,210,2.0,6.0,18,0.00,,,-99.99,,2013-03-14 00:33:00,
2013-03-13 17:42:00,78.0,32.0,29.82,SW,220,4.0,9.0,19,0.00,,,-99.99,,2013-03-14 00:42:00,
2013-03-13 17:52:00,78.0,32.0,29.82,SW,220,4.0,9.0,19,0.00,,,-99.99,,2013-03-14 00:52:00,
2013-03-13 18:02:00,77.0,32.0,29.82,North,0,0.0,5.0,19,0.00,,,-99.99,,2013-03-14 01:02:00,
2013-03-13 18:12:00,77.0,32.0,29.82,North,0,0.0,5.0,19,0.00,,,-99.99,,2013-03-14 01:12:00,
2013-03-13 18:22:00,77.0,32.0,29.82,North,0,0.0,5.0,19,0.00,,,-99.99,,2013-03-14 01:22:00,
2013-03-13 18:32:00,77.0,34.0,29.81,North,0,0.0,1.0,21,0.00,,,-99.99,,2013-03-14 01:32:00,
2013-03-13 18:42:00,77.0,34.0,29.81,North,0,0.0,1.0,21,0.00,,,-99.99,,2013-03-14 01:42:00,
2013-03-13 18:52:00,77.0,34.0,29.81,North,0,0.0,1.0,21,0.00,,,-99.99,,2013-03-14 01:52:00,
2013-03-13 19:02:00,76.0,32.0,29.81,West,260,2.0,3.0,20,0.00,,,-99.99,,2013-03-14 02:02:00,
2013-03-13 19:12:00,76.0,32.0,29.81,West,260,2.0,3.0,20,0.00,,,-99.99,,2013-03-14 02:12:00,
2013-03-13 19:22:00,76.0,32.0,29.81,West,260,2.0,3.0,20,0.00,,,-99.99,,2013-03-14 02:22:00,
2013-03-13 19:32:00,76.0,32.0,29.81,West,260,2.0,3.0,20,0.00,,,-99.99,,2013-03-14 02:32:00,
2013-03-13 20:01:00,73.0,27.0,29.83,North,0,0.0,2.0,18,0.00,,,-99.99,,2013-03-14 03:01:00,
2013-03-13 20:12:00,73.0,27.0,29.83,North,0,0.0,2.0,18,0.00,,,-99.99,,2013-03-14 03:12:00,
2013-03-13 20:22:00,73.0,27.0,29.83,North,0,0.0,2.0,18,0.00,,,-99.99,,2013-03-14 03:22:00,
2013-03-13 20:32:00,72.0,23.0,29.83,West,260,2.0,3.0,16,0.00,,,-99.99,,2013-03-14 03:32:00,
2013-03-13 20:42:00,72.0,23.0,29.83,West,260,2.0,3.0,16,0.00,,,-99.99,,2013-03-14 03:42:00,
2013-03-13 20:52:00,72.0,23.0,29.83,West,260,2.0,3.0,16,0.00,,,-99.99,,2013-03-14 03:52:00,
2013-03-13 21:32:00,72.0,25.0,29.85,West,260,3.0,4.0,17,0.00,,,-99.99,,2013-03-14 04:32:00,
2013-03-13 22:02:00,71.0,32.0,29.85,West,270,1.0,3.0,24,0.00,,,-99.99,,2013-03-14 05:02:00,
2013-03-13 22:32:00,72.0,32.0,29.85,West,280,2.0,3.0,23,0.00,,,-99.99,,2013-03-14 05:32:00,
2013-03-13 22:42:00,72.0,31.0,29.85,North,0,0.0,3.0,22,0.00,,,-99.99,,2013-03-14 05:42:00,
2013-03-13 22:53:00,72.0,31.0,29.85,North,0,0.0,3.0,22,0.00,,,-99.99,,2013-03-14 05:53:00,
2013-03-13 23:33:00,73.0,28.0,29.85,WNW,290,1.0,2.0,19,0.00,,,-99.99,,2013-03-14 06:33:00,